This demonstration page uses our WeatherBlox Daily Observations layout. Learn more.

Left ArrowRight Arrow

39.92423, -83.80882

Hourly Observations for July 14, 2021

Temp ( °F °C ) Dew Point ( °F °C ) Humidity (%) Winds ( mph kmh ) Pressure ( in mb ) Visibility ( mi km ) Precip ( " mm )
12:56 am 00:56 Partly Cloudy 66 19 N/A N/A SW 5 7 30.15 1021 9 14 N/A
1:56 am 01:56 Cloudy 68 20 N/A N/A SW 7 11 30.16 1022 7 11 N/A
2:28 am 02:28 Cloudy with Haze 70 21 N/A N/A SW 8 13 30.15 1021 5 8 N/A
2:43 am 02:43 Cloudy with Light Rain 70 21 N/A N/A SW 8 13 30.15 1021 5 8 0.00 0.00
2:56 am 02:56 Cloudy with Haze 70 21 N/A N/A SW 7 11 30.16 1021 5 8 0.00 0.00
3:19 am 03:19 Cloudy with Haze 70 21 N/A N/A SW 7 11 30.15 1021 5 8 N/A
3:41 am 03:41 Cloudy with Haze 70 21 N/A N/A SW 7 11 30.15 1021 5 8 N/A
3:56 am 03:56 Cloudy with Haze 70 21 N/A N/A SW 8 13 30.16 1022 5 8 N/A
4:49 am 04:49 Mostly Cloudy with Haze 70 21 N/A N/A SW 7 11 30.16 1021 4 6 N/A
4:56 am 04:56 Mostly Cloudy with Haze 70 21 N/A N/A WSW 9 15 30.18 1022 5 8 N/A
5:56 am 05:56 Cloudy with Haze 68 20 N/A N/A SW 5 7 30.19 1022 4 6 N/A
6:21 am 06:21 Cloudy with Mist and Fog 68 20 N/A N/A SSW 5 7 30.17 1022 2 3 N/A
6:36 am 06:36 Cloudy with Mist and Fog 68 20 N/A N/A SSW 7 11 30.17 1022 2 3 N/A
6:49 am 06:49 Cloudy with Mist and Fog 68 20 N/A N/A SW 7 11 30.18 1022 2 3 N/A
6:56 am 06:56 Cloudy with Mist and Fog 68 20 N/A N/A SW 7 11 30.19 1023 1 2 N/A
7:02 am 07:02 Cloudy with Mist and Fog 68 20 N/A N/A SW 8 13 30.18 1022 1 1 N/A
7:08 am 07:08 Cloudy with Mist and Fog 68 20 N/A N/A SW 8 13 30.18 1022 1 2 N/A
7:32 am 07:32 Cloudy with Mist and Fog 68 20 N/A N/A SW 5 7 30.19 1022 3 4 N/A
7:40 am 07:40 Cloudy with Mist and Fog 70 21 N/A N/A SW 5 7 30.19 1022 3 4 N/A
7:48 am 07:48 Cloudy with Mist and Fog 70 21 N/A N/A SW 6 9 30.19 1022 3 5 N/A
7:56 am 07:56 Mostly Cloudy with Mist and Fog 70 21 N/A N/A SW 5 7 30.21 1023 3 5 N/A
8:56 am 08:56 Mostly Cloudy 73 22.8 73 22.8 100 100 WNW 6 9 30.21 1023 10 16 N/A
9:56 am 09:56 Cloudy 74 23.3 73 22.8 97 97 W 3 6 30.21 1023 10 16 N/A
10:27 am 10:27 Cloudy 73 23 73 23 100 100 WSW 5 7 30.19 1022 10 16 N/A
10:40 am 10:40 Cloudy 75 24 73 23 94 94 W 6 9 30.19 1022 10 16 N/A
10:56 am 10:56 Cloudy 75 23.9 75 23.9 100 100 W 6 9 30.22 1023 10 16 N/A
11:37 am 11:37 Mostly Cloudy 77 25 73 23 89 89 W 9 15 30.18 1022 10 16 N/A
11:56 am 11:56 Partly Cloudy 78 25.6 74 23.3 87 87 WSW 6 9 30.21 1023 10 16 N/A
12:17 pm 12:17 Mostly Cloudy 79 26 72 22 79 79 WSW 9 15 30.18 1022 10 16 N/A
12:33 pm 12:33 Partly Cloudy 79 26 72 22 79 79 W 6 9 30.18 1022 10 16 N/A
12:56 pm 12:56 Partly Cloudy 79 26.1 72 22.2 79 79 W 10 17 30.22 1023 10 16 N/A
1:19 pm 13:19 Mostly Cloudy 79 26 72 22 79 79 VRB 5 7 30.18 1022 10 16 N/A
1:30 pm 13:30 Partly Cloudy 81 27 72 22 74 74 W 8 13 30.18 1022 10 16 N/A
1:56 pm 13:56 Mostly Sunny 79 26.1 71 21.7 77 77 SW 7 11 30.20 1023 10 16 N/A
2:56 pm 14:56 Mostly Cloudy 80 26.7 70 21.1 71 71 W 7 11 30.18 1022 10 16 N/A
3:56 pm 15:56 Sunny 82 27.8 71 21.7 69 69 VRB 7 11 30.17 1022 10 16 N/A
4:56 pm 16:56 Mostly Sunny 81 27.2 70 21.1 69 69 SW 9 15 30.15 1021 10 16 N/A
5:56 pm 17:56 Partly Cloudy 81 27.2 68 20 65 65 WSW 10 17 30.15 1021 10 16 N/A
6:56 pm 18:56 Partly Cloudy 80 26.7 72 22.2 76 76 SW 5 7 30.14 1021 10 16 N/A
7:56 pm 19:56 Sunny 78 25.6 75 23.9 90 90 SW 3 6 30.15 1021 10 16 N/A
8:56 pm 20:56 Sunny 74 23.3 72 22.2 94 94 N N/A 30.14 1021 10 16 N/A
9:56 pm 21:56 Clear 70 21 N/A N/A S 6 9 30.13 1020 10 16 N/A
10:56 pm 22:56 Clear 72 22 N/A N/A S 3 6 30.14 1021 10 16 N/A
11:56 pm 23:56 Clear 71 21.7 71 21.7 100 100 S 5 7 30.14 1021 10 16 N/A

Powered by AerisWeather